Wind_Speed
11 12 14 14 15 15 15 15 14 14 13 11 9 8 8 8 9 10 10 10 10 10 10 11 12 11 9 8 10 13 16 18 18 18 18 18 19 18 18 18 18 17 16 16 16 16 15 14 13 12 12 11 10 10 10 10 10 10 10 10 10 10 11 11 11 10 10 10 9 9 9 9 9 8 8 8 8 8 8 9 9 9 9 9 8
12 13 14 14 14 14 14 13 13 13 11 10 9 9 9 10 11 11 12 12 12 11 11 11 11 11 10 8 8 10 12 14 15 16 17 17 18 17 17 17 17 16 15 15 15 15 15 14 14 14 13 13 12 12 12 12 11 11 12 12 12 12 12 12 11 11 11 11 10 10 10 9 9 9 9 9 9 9 9 9 9 9 9 9 9
12 13 13 13 13 13 13 12 12 11 10 9 9 9 10 10 11 11 11 10 11 11 10 10 11 11 10 9 8 9 10 11 13 14 15 16 16 16 16 16 16 16 15 15 15 15 15 15 15 15 15 15 14 14 13 12 12 12 12 13 13 13 13 13 12 12 12 11 11 11 11 11 11 11 10 10 10 10 10 10 10 10 9 9 9
12 12 12 12 12 13 13 13 12 11 10 9 10 10 11 11 11 10 9 8 9 9 9 9 9 10 10 9 8 9 10 11 11 12 13 14 16 16 15 15 15 15 14 14 15 15 15 15 15 15 15 15 15 14 13 13 13 13 13 13 13 14 13 13 13 12 12 11 11 11 11 11 12 12 12 11 11 11 11 11 11 10 10 9 9
12 11 11 11 12 12 13 13 12 11 10 10 11 11 11 11 10 9 8 8 8 7 7 7 8 9 9 9 9 10 10 10 10 11 12 13 14 15 15 13 12 12 13 13 14 14 15 14 14 14 14 14 13 12 12 12 12 12 13 13 13 13 13 12 12 11 11 11 11 11 11 12 12 12 13 13 13 12 12 11 11 11 11 10 10
12 10 10 10 10 11 12 12 12 11 10 10 10 11 10 10 9 9 8 8 8 7 6 6 7 8 8 9 10 10 10 10 11 11 12 12 12 12 12 12 10 9 10 11 12 12 13 13 12 12 13 12 11 11 10 10 11 11 11 12 12 12 12 11 11 11 11 11 11 11 12 12 13 13 13 13 13 13 12 11 11 11 11 11 10
12 11 9 9 10 10 12 12 11 10 9 10 10 10 10 9 8 8 8 8 8 7 7 8 8 8 8 9 10 11 12 12 11 10 10 11 12 11 11 11 9 8 8 8 9 10 11 11 11 11 11 10 9 9 9 9 9 10 10 11 11 11 11 11 11 12 12 11 11 12 12 13 13 13 13 13 13 12 12 12 11 11 11 11 11
12 11 10 10 10 11 11 12 11 10 9 9 10 10 10 9 8 8 8 8 8 8 8 8 8 8 8 9 10 12 12 11 10 11 10 10 11 11 10 11 10 8 8 8 9 10 10 10 10 10 9 8 7 7 8 9 9 10 10 10 11 11 11 12 12 12 12 13 13 13 13 13 14 14 14 13 13 13 13 12 12 12 12 12 12
12 11 11 11 11 10 10 11 10 9 8 9 10 10 10 9 8 8 8 8 8 9 8 8 7 6 6 7 9 10 10 9 9 10 10 11 11 10 9 10 8 7 7 7 7 7 8 8 8 8 7 7 7 7 7 8 9 9 9 9 9 10 11 11 11 11 12 13 13 13 13 13 13 14 14 14 14 14 14 13 13 13 13 13 13
11 10 11 11 10 10 9 10 9 8 8 9 10 11 10 8 7 7 7 8 9 8 8 8 6 5 5 6 7 7 7 6 7 9 9 9 9 8 7 6 5 5 5 5 4 5 5 6 7 7 6 6 6 6 6 7 7 7 7 8 8 8 9 9 9 10 11 11 11 11 12 12 12 13 13 14 15 15 14 14 14 14 14 14 14
10 10 12 12 11 11 10 10 10 9 8 8 9 10 9 8 7 7 7 7 8 8 7 7 6 6 6 6 6 5 5 6 8 9 7 5 6 6 5 4 3 3 4 3 3 4 5 6 6 6 5 5 5 5 4 5 6 5 5 6 6 6 7 8 8 9 9 10 10 10 11 11 12 12 12 13 13 14 14 14 14 14 14 14 14
9 10 12 12 12 12 11 11 10 9 8 7 7 8 8 7 7 6 6 7 7 7 7 6 6 6 6 6 6 5 5 6 9 8 4 4 5 5 4 3 3 3 3 3 4 4 5 6 6 6 4 4 4 3 4 4 5 5 4 4 5 6 6 6 7 8 7 8 9 10 10 11 11 11 11 12 12 12 12 13 13 13 13 13 13
4 6 7 9 10 11 11 10 9 8 7 6 7 8 8 7 7 6 6 6 7 7 7 6 6 6 7 7 6 6 5 7 7 4 2 4 5 4 3 3 4 4 4 4 4 5 5 5 6 6 5 4 4 4 4 5 6 6 5 4 5 5 4 5 6 6 6 7 8 8 8 10 10 10 10 10 11 11 12 12 12 12 13 12 12
1 1 2 4 6 8 9 9 8 8 6 6 7 8 8 8 7 7 6 7 7 6 6 6 7 7 7 7 6 6 6 6 6 2 1 4 5 4 3 4 6 5 5 5 5 5 5 5 6 6 4 4 5 5 5 5 6 6 6 5 5 5 4 4 5 5 5 6 6 7 7 8 9 9 9 9 10 11 11 11 12 12 13 12 12
2 2 2 1 2 4 6 7 7 7 7 7 7 7 7 7 7 8 7 7 7 6 6 6 6 6 6 6 6 5 5 5 4 3 3 5 4 1 1 4 6 5 4 4 4 4 4 5 6 5 4 4 4 4 4 5 5 5 5 4 4 4 4 4 4 5 5 6 6 6 7 7 8 8 8 9 10 10 10 11 11 12 12 12 13
2 3 3 3 2 1 2 4 5 5 6 6 6 7 7 7 7 8 8 8 7 7 6 6 6 5 5 5 5 4 3 3 3 2 3 5 4 4 3 5 5 4 3 3 4 4 4 5 4 3 3 3 3 2 3 4 4 4 4 4 4 5 5 5 5 5 6 7 7 7 7 7 8 8 9 9 9 10 10 10 11 11 12 12 12
1 2 3 3 3 2 2 3 3 3 4 4 5 6 7 8 8 9 9 8 8 7 7 7 6 5 5 4 4 4 3 2 2 1 2 5 5 4 5 5 4 4 4 4 4 4 4 3 2 2 2 2 2 2 3 4 4 5 5 6 6 6 6 7 7 7 8 9 9 9 9 9 9 9 10 10 10 10 10 10 10 10 11 11 11
1 1 2 2 2 3 3 4 4 3 3 3 5 6 7 8 9 10 10 10 9 8 8 8 7 7 6 5 4 4 3 3 3 3 3 4 4 3 4 5 4 3 3 3 4 3 3 2 2 2 1 1 2 3 4 4 5 6 7 7 7 7 7 7 8 8 9 9 9 10 10 10 10 10 10 10 9 9 9 8 8 8 8 9 9
3 2 2 2 3 3 4 4 5 5 4 4 4 6 8 8 9 10 10 10 9 9 9 9 9 8 8 7 5 4 4 3 3 4 3 4 4 3 4 4 3 2 1 2 2 2 2 2 1 1 2 3 4 5 6 6 7 7 7 7 7 7 7 7 7 8 8 9 9 9 9 9 9 8 8 8 8 7 6 6 5 6 6 7 7
4 3 3 3 4 4 5 6 6 6 6 5 5 6 7 8 9 9 10 10 9 9 9 10 10 10 9 8 7 6 5 4 4 3 2 2 2 3 3 1 1 1 1 1 1 0 1 1 3 4 5 6 7 8 8 8 8 8 7 7 6 6 6 6 7 7 7 7 8 8 7 7 6 6 5 5 5 5 5 4 5 6 7 7 7
5 4 5 5 6 7 7 8 8 8 8 7 6 5 6 8 9 10 10 10 10 9 9 10 10 10 9 9 8 7 6 6 5 3 2 2 2 3 3 1 1 2 2 1 1 1 1 3 5 6 8 9 9 9 9 9 8 7 6 5 5 5 6 6 6 6 5 5 5 5 5 5 6 6 5 5 5 5 5 5 6 7 8 8 8
6 6 7 8 8 9 10 10 10 9 9 7 6 6 6 8 9 10 11 11 10 9 9 10 10 10 9 9 8 8 7 7 6 5 4 3 2 3 3 3 3 4 4 4 3 2 3 4 6 7 9 9 9 9 9 8 7 6 5 5 5 5 5 4 4 4 4 4 4 5 5 6 7 7 7 7 6 6 6 7 7 8 8 8 8
7 8 9 11 11 11 11 11 10 9 8 8 7 7 7 8 9 10 11 11 11 11 10 10 10 9 9 9 8 8 8 8 8 7 6 5 4 4 5 4 4 5 5 5 5 4 4 4 5 7 7 7 7 7 6 6 5 5 4 4 4 4 3 3 3 3 4 4 4 5 5 6 6 7 7 7 7 7 7 7 8 8 8 8 8
10 11 12 13 13 12 11 10 9 8 8 8 8 8 8 9 10 11 11 12 12 11 11 11 10 10 10 9 9 8 8 8 8 7 7 7 7 7 6 5 4 5 6 5 5 4 4 5 6 6 6 5 5 5 5 4 4 3 3 2 2 2 2 2 2 3 4 4 4 5 5 6 6 6 6 7 7 7 7 7 7 8 8 8 8
12 13 13 12 12 11 10 9 7 7 8 8 8 8 8 9 10 11 11 11 11 12 11 11 11 11 11 11 10 9 9 9 8 7 7 7 8 8 7 7 6 7 6 5 4 4 5 6 6 5 4 4 4 4 4 3 2 2 1 1 1 1 1 2 2 2 3 4 4 4 5 5 5 6 6 6 7 7 7 7 7 8 8 8 9
13 12 10 9 8 8 8 7 7 7 7 7 7 8 9 10 10 10 10 10 10 11 11 11 11 11 11 10 10 10 10 9 8 7 7 7 8 8 7 7 6 7 7 6 5 5 6 6 5 4 3 3 3 4 3 2 1 1 0 1 1 1 1 1 1 2 2 3 3 4 4 5 5 6 6 7 7 8 8 8 9 9 9 10 10
13 11 8 6 5 5 6 6 7 7 7 7 7 8 9 10 10 10 9 9 10 11 11 11 12 11 11 11 10 10 10 10 9 9 8 8 9 9 8 6 5 6 7 6 5 5 6 5 4 4 3 3 3 3 3 2 2 1 1 1 2 1 1 0 0 1 2 3 3 4 5 6 7 8 9 10 10 10 10 11 11 11 11 12 12
12 10 8 5 4 4 5 6 7 7 7 7 7 8 9 10 10 10 10 10 10 10 11 12 13 13 12 12 11 11 11 11 11 10 9 9 9 8 8 7 5 5 6 6 6 5 5 5 4 4 4 3 3 3 3 2 2 1 1 2 1 1 1 1 1 2 3 4 5 6 7 9 10 11 11 12 12 12 12 12 12 13 13 13 14
12 11 9 6 4 5 6 6 7 8 7 7 8 8 9 10 10 10 10 9 8 8 9 10 12 13 13 13 13 13 13 12 11 10 8 8 8 8 8 7 5 5 5 5 6 5 4 4 4 4 3 3 3 3 2 2 1 1 1 1 2 2 3 3 3 4 6 7 8 9 10 11 12 13 13 13 13 13 14 14 14 14 15 15 16
12 12 11 8 6 6 7 7 7 8 7 7 7 8 8 9 10 10 8 7 7 7 8 9 10 11 11 11 11 12 12 10 9 9 8 8 8 7 7 6 5 5 5 5 6 5 4 3 3 3 2 2 2 2 2 2 1 1 1 3 4 4 5 6 7 8 9 10 11 12 12 13 14 14 14 14 14 15 15 16 17 17 18 18 18
13 13 12 10 7 7 7 8 8 8 7 6 7 7 8 9 9 9 8 7 6 6 8 9 9 10 10 9 8 9 9 8 8 8 8 8 7 5 6 7 7 7 6 6 7 6 4 3 3 2 2 2 2 2 2 2 2 2 3 4 5 6 7 9 10 11 12 12 13 14 14 14 15 15 16 16 17 17 18 19 20 20 20 21 21
13 13 12 10 8 7 7 8 8 8 7 6 7 7 7 8 9 9 8 6 6 7 9 9 9 9 10 9 9 10 9 9 10 10 9 8 7 7 8 9 9 8 7 7 6 4 3 3 4 3 3 2 2 2 2 2 3 4 5 7 8 9 10 12 13 14 14 14 14 15 15 15 16 17 18 19 20 21 22 22 22 22 22 22 22
13 14 13 11 9 8 8 8 8 8 7 7 7 8 8 9 9 9 8 6 6 7 8 9 9 9 9 9 9 9 9 9 10 10 10 9 8 8 10 10 8 7 7 7 5 3 3 4 4 3 2 3 3 3 3 4 5 7 8 10 11 12 14 15 16 16 16 16 15 16 16 17 18 19 21 22 22 23 23 24 23 23 22 22 21
14 14 13 12 10 8 8 8 8 8 8 8 8 8 8 9 9 9 8 7 7 8 9 9 10 10 10 10 10 10 10 9 9 9 9 8 8 7 8 9 8 7 7 6 5 4 4 4 3 3 4 4 5 5 5 6 7 9 11 12 13 14 16 17 17 17 16 16 17 17 18 20 21 22 22 23 23 23 23 23 23 22 21 20 20
15 15 14 12 10 9 8 8 9 8 9 9 9 9 9 9 10 10 10 9 9 9 10 11 11 11 11 11 11 11 10 9 8 7 7 7 6 7 8 8 6 6 6 6 6 5 5 4 4 5 6 6 7 7 8 9 10 11 13 14 15 16 17 18 17 17 16 17 17 19 20 22 22 22 22 23 22 22 21 21 20 19 18 18 19
16 15 14 12 11 10 9 9 9 9 10 10 9 9 10 10 11 11 11 10 10 11 11 11 12 13 13 13 12 12 11 9 8 7 7 6 6 7 8 7 6 6 6 6 7 6 5 5 5 6 6 7 8 9 9 10 12 13 15 16 17 18 19 19 18 18 18 18 19 21 22 22 22 22 22 21 21 20 19 18 17 16 16 16 18
17 16 14 12 10 9 9 9 9 9 10 10 9 9 9 10 10 10 10 10 10 10 10 10 11 11 12 13 13 13 12 10 10 9 9 9 8 7 7 6 6 6 6 6 6 5 5 6 6 7 7 8 9 10 11 11 12 14 15 16 18 19 20 21 21 20 21 21 22 22 23 22 22 22 21 20 19 19 17 16 16 15 15 17 19
17 16 14 12 10 9 9 9 9 8 9 9 9 8 9 9 10 9 9 9 9 9 9 8 8 9 10 12 13 13 13 12 11 11 11 10 9 7 6 5 5 5 5 5 5 5 6 7 8 9 10 10 11 12 13 14 14 15 16 17 18 20 21 22 23 23 24 24 24 24 24 23 22 22 21 20 19 18 18 18 17 17 18 20 21
17 16 15 12 10 9 9 9 8 8 9 9 9 9 9 9 9 8 8 7 7 8 8 8 8 8 9 11 13 14 14 13 12 11 10 10 9 8 7 7 6 6 6 6 6 7 8 9 10 11 12 13 14 15 16 17 17 17 17 18 19 20 21 23 24 25 26 26 26 26 25 24 24 23 22 21 20 20 20 20 21 21 23 24 25
17 16 14 12 10 10 9 9 9 9 10 10 10 10 10 10 9 9 9 8 8 8 8 8 8 9 9 10 12 13 13 12 11 11 10 9 9 9 9 8 8 8 8 8 8 9 9 10 11 12 14 15 17 17 18 19 19 19 19 20 20 21 21 23 25 26 27 28 27 27 26 25 25 24 24 23 23 22 22 23 24 25 26 27 28
16 15 13 12 11 11 11 11 11 11 12 12 11 12 12 11 11 10 10 9 8 8 8 8 8 8 9 9 10 10 11 11 10 10 10 10 9 9 9 9 9 9 10 10 11 11 12 13 14 15 16 18 19 20 20 20 20 20 20 21 21 22 22 23 25 26 28 28 28 28 27 26 25 25 25 25 25 25 25 25 26 27 29 29 30
15 13 12 12 12 12 13 13 13 13 13 13 13 13 12 12 11 11 11 10 10 10 9 9 8 8 8 9 9 9 9 9 9 9 9 9 9 9 10 11 12 13 14 14 15 16 16 17 18 19 20 21 21 21 22 22 22 22 22 23 24 24 24 25 25 27 28 28 29 28 27 27 26 26 27 27 27 27 27 28 29 30 31 31 32
15 14 13 12 13 14 15 15 16 16 16 16 15 15 14 14 13 13 13 13 12 12 12 11 11 10 10 10 10 10 10 10 11 11 12 12 13 13 14 15 16 17 18 19 19 20 21 21 22 23 24 24 24 23 23 22 23 23 24 25 26 26 27 27 28 29 29 29 29 29 28 28 28 28 28 29 29 30 30 31 31 32 32 33 34
17 16 15 14 14 14 16 17 18 19 19 19 18 18 17 17 16 16 16 15 15 15 15 14 14 14 14 13 13 13 14 14 15 15 16 16 17 18 19 20 21 22 22 22 23 23 24 25 26 27 27 27 26 26 25 25 25 26 27 27 27 28 29 29 30 30 31 31 30 29 29 30 30 30 31 31 31 32 32 33 33 33 34 35 36
19 19 18 17 16 16 16 18 19 20 21 21 21 21 21 20 20 19 19 19 18 18 18 17 17 17 17 17 18 17 18 19 19 19 20 21 22 23 24 24 25 25 26 26 26 26 27 28 29 29 29 29 28 27 27 29 30 30 30 30 30 31 31 31 31 31 31 31 30 30 30 31 31 32 32 32 33 33 33 34 34 35 35 37 38
21 21 20 19 18 17 17 18 19 21 22 22 23 23 23 23 23 22 22 21 21 21 21 21 21 21 21 21 22 22 22 23 23 24 24 25 26 27 27 28 28 28 29 30 30 30 30 31 31 31 31 31 30 30 30 32 33 33 32 32 34 35 34 33 33 33 32 31 30 31 31 31 32 32 33 33 34 34 35 35 35 36 37 38 39
21 20 19 19 19 18 17 17 18 20 21 22 23 23 23 23 23 23 23 23 23 23 23 24 24 24 25 25 26 26 26 27 27 28 29 30 31 31 31 31 31 32 32 33 33 33 34 34 35 34 34 33 33 33 33 35 35 34 34 35 36 36 36 35 36 36 36 34 32 31 32 32 32 32 33 33 34 35 35 35 36 36 38 39 41
20 19 19 19 19 19 19 19 19 20 21 22 22 23 23 23 23 23 24 24 24 25 25 26 27 27 28 29 29 29 30 30 31 31 32 33 34 34 34 34 35 35 36 36 36 36 37 37 37 37 37 36 37 36 37 37 36 36 36 37 36 36 36 37 39 40 39 37 34 32 32 33 32 32 33 34 35 35 35 35 36 37 39 41 42
18 19 20 21 21 21 21 21 22 22 23 24 24 24 24 24 24 24 24 24 25 25 25 26 27 28 29 30 31 31 31 31 32 32 34 35 36 36 36 37 38 38 38 38 38 38 38 39 39 39 39 40 40 39 39 38 38 37 38 40 40 38 36 37 39 41 40 38 36 33 33 34 33 34 34 34 35 35 36 36 37 39 41 42 44
18 20 21 22 22 22 23 24 24 25 25 25 25 25 25 25 25 26 26 26 26 26 26 27 27 28 29 30 31 31 32 32 32 33 35 36 37 37 38 38 39 39 38 38 39 39 39 39 39 39 40 41 41 41 40 39 39 39 40 42 43 40 37 37 39 40 39 37 35 33 34 34 35 35 35 34 34 35 35 37 39 40 42 44 45
20 21 22 23 23 24 25 26 27 27 27 28 28 29 29 29 29 29 29 29 30 30 30 30 30 30 30 31 31 32 32 33 34 35 36 38 39 39 38 39 40 40 39 39 41 40 39 39 39 39 39 38 38 39 39 38 40 41 43 45 45 42 40 40 40 39 38 36 33 32 34 35 35 35 35 35 35 35 36 37 40 42 44 45 46
Wind_Direction
230 240 246 251 254 254 254 253 252 250 246 243 245 252 264 270 272 271 267 263 258 253 248 248 252 255 251 241 237 237 238 241 246 249 252 254 257 260 262 265 266 268 271 274 276 278 280 283 284 285 286 286 286 286 287 288 286 283 281 281 281 280 281 283 287 291 296 300 305 309 313 317 320 324 328 331 332 334 336 339 343 347 352 357 3
241 247 249 251 250 249 249 249 250 248 245 244 249 260 270 273 274 272 270 266 262 256 249 245 247 250 249 240 234 235 236 239 243 246 249 251 253 256 259 261 264 267 271 274 277 279 281 283 284 285 285 285 285 285 284 282 279 276 274 274 274 274 275 277 280 284 289 293 297 301 304 307 309 311 313 315 317 319 321 325 329 332 336 341 346
243 244 243 243 242 240 241 245 247 248 249 252 259 267 272 273 273 271 269 265 260 255 249 244 244 245 243 237 234 236 238 238 239 242 245 248 251 253 255 258 261 265 270 275 279 281 282 283 283 283 283 283 283 283 281 278 274 270 268 268 270 271 272 274 277 279 283 286 290 294 297 300 301 304 305 306 307 308 311 314 317 321 325 329 333
239 238 237 236 234 234 238 242 245 250 256 262 268 270 270 271 269 267 264 259 256 252 248 246 244 242 238 234 232 232 234 236 239 244 248 251 251 250 252 257 261 265 270 275 279 282 284 284 283 281 278 278 278 279 279 275 272 268 266 267 269 271 272 273 275 276 279 282 286 290 294 297 299 301 301 301 301 301 304 306 309 312 314 318 319
237 235 235 233 232 235 239 243 248 255 263 268 269 267 266 266 266 264 258 254 252 246 244 246 243 240 236 232 230 231 235 240 244 246 247 249 251 251 253 258 262 267 272 275 278 281 283 283 282 279 276 275 275 277 277 275 273 270 270 270 270 270 270 270 272 275 278 282 285 289 291 294 296 296 295 295 295 295 296 298 301 303 305 307 309
237 236 235 234 237 241 246 251 255 260 265 267 264 262 262 263 264 261 252 247 245 240 239 242 242 244 243 239 235 235 237 238 238 237 238 243 251 256 259 261 261 267 273 274 275 276 277 278 278 278 277 276 276 278 280 278 277 275 273 273 271 270 269 270 272 275 279 281 284 285 285 286 287 287 287 287 288 288 289 291 292 294 296 298 300
238 238 239 240 242 246 253 256 257 261 264 262 260 260 263 264 263 257 247 240 240 235 233 237 239 245 252 249 242 237 236 236 238 240 242 249 255 259 261 262 261 263 269 272 275 274 274 275 277 279 281 282 284 284 282 280 278 276 273 271 270 270 271 273 275 277 279 280 281 281 281 281 280 279 279 280 281 282 283 284 285 285 287 289 292
240 240 242 245 245 247 252 254 255 260 263 262 261 263 264 262 257 251 242 237 235 228 227 232 234 241 252 253 246 240 241 243 246 249 250 253 257 254 255 259 260 261 267 274 276 273 271 273 276 279 285 289 290 286 283 281 278 274 272 269 268 270 270 272 278 283 284 284 283 281 280 278 277 276 276 277 277 278 279 280 281 281 283 284 286
243 244 246 248 248 248 250 252 255 257 258 259 260 262 261 257 252 244 236 231 228 223 221 225 231 240 250 255 252 248 251 252 251 251 246 247 253 251 248 252 255 257 265 271 271 270 271 273 275 278 283 288 288 287 287 286 280 275 273 272 272 272 272 275 280 284 285 285 285 284 283 280 279 278 276 276 276 276 277 278 278 279 280 283 285
248 248 251 252 252 254 256 257 256 253 253 253 253 256 255 251 247 237 227 224 227 225 221 220 224 234 245 255 257 256 261 267 266 254 238 234 238 235 236 240 242 248 254 261 265 271 275 277 281 284 288 288 288 291 291 288 284 281 282 282 282 281 282 283 282 281 282 286 289 289 288 287 286 286 283 281 279 277 276 276 277 279 280 283 284
247 239 244 246 248 253 254 255 256 256 257 252 246 248 250 249 242 226 217 222 228 228 223 217 218 226 238 253 262 268 279 292 276 255 245 243 222 209 221 229 232 244 250 262 269 269 267 270 277 282 287 288 290 295 290 285 287 289 294 295 294 290 288 290 289 286 287 290 293 292 292 292 291 290 289 288 286 282 280 280 280 282 283 284 285
246 239 240 242 243 246 247 251 257 261 265 260 247 248 255 257 246 225 215 224 228 224 221 219 223 232 241 249 263 277 289 292 271 244 233 258 236 213 223 233 237 248 256 261 261 263 264 266 267 268 271 276 279 280 280 284 290 297 307 304 298 296 294 295 295 291 291 294 295 295 296 295 292 289 288 287 286 284 285 285 284 284 284 284 283
245 245 243 241 240 241 244 249 253 258 265 263 250 250 258 258 248 232 222 229 232 229 227 229 236 242 245 247 259 276 288 288 272 231 201 257 244 219 228 251 249 247 250 252 255 265 273 275 271 270 274 276 269 270 279 286 291 296 300 295 296 302 306 303 299 295 295 295 293 293 294 294 294 294 291 287 285 283 283 284 284 284 284 283 282
338 290 253 240 239 241 246 251 252 258 266 263 254 255 260 257 248 237 230 232 235 238 239 238 240 242 248 252 257 275 292 292 279 262 268 261 237 213 223 255 253 248 247 252 259 265 273 276 273 270 269 267 267 275 284 285 287 294 300 303 305 309 315 313 310 309 309 303 296 295 295 294 298 300 295 289 287 286 284 282 281 281 281 280 280
15 29 41 37 251 251 258 263 264 267 270 265 261 260 261 260 252 242 237 234 234 240 242 238 237 239 252 258 261 278 303 308 305 319 292 263 247 257 274 253 257 259 249 245 248 251 262 266 265 262 249 248 260 275 282 280 284 292 299 304 306 307 314 320 319 319 314 304 298 297 294 292 295 297 293 291 292 293 291 286 283 281 281 279 279
31 38 44 51 48 6 302 285 278 277 276 270 266 262 260 261 257 250 244 238 235 239 245 243 240 242 251 259 268 282 299 311 324 333 283 272 294 330 306 274 274 277 255 235 237 243 251 250 244 231 221 230 240 253 264 273 283 290 296 300 303 305 306 307 306 304 298 294 293 292 292 292 294 295 295 294 295 297 297 293 287 283 280 279 280
44 37 27 29 27 15 357 334 315 300 284 269 260 257 257 257 258 257 249 242 238 240 248 250 245 243 244 253 267 277 280 284 299 308 256 277 303 322 308 294 282 265 254 239 237 236 236 234 192 177 199 222 234 253 268 279 288 295 301 304 303 301 297 294 294 290 288 290 291 289 291 294 294 295 296 298 299 300 300 297 293 288 284 280 279
327 342 343 341 341 337 332 329 328 322 300 266 246 242 245 249 252 253 248 243 240 238 242 246 247 245 243 246 249 255 266 271 275 269 252 273 299 318 305 286 258 246 253 247 240 232 219 203 177 184 217 266 281 288 291 294 300 304 307 306 303 302 298 293 291 289 289 292 294 293 296 299 299 300 301 303 305 307 308 307 306 306 303 295 292
298 303 306 310 319 324 319 313 310 310 306 288 258 240 238 241 244 247 247 243 238 236 236 239 243 243 243 246 243 243 251 248 253 260 264 283 299 309 303 285 259 248 237 238 247 239 220 202 206 265 294 298 299 303 305 308 309 309 307 307 307 307 305 301 299 298 298 301 301 300 302 304 305 307 308 311 314 320 327 333 336 336 332 324 317
304 301 299 303 314 320 319 311 300 294 292 293 282 258 244 241 240 242 245 244 239 235 235 235 237 239 240 242 241 239 239 240 245 244 254 291 301 302 307 289 224 241 232 253 286 277 312 312 310 310 306 306 308 308 310 311 309 309 308 310 313 313 313 312 310 309 307 306 306 308 311 315 322 326 329 333 336 342 349 355 355 347 339 333 326
314 308 300 297 299 304 308 305 296 287 282 284 285 274 257 245 240 236 239 244 243 237 233 233 234 239 242 243 243 242 237 236 240 234 233 264 274 276 274 210 205 231 220 222 238 241 289 302 307 312 314 316 316 313 312 310 308 309 310 313 315 314 313 313 315 317 320 322 323 328 336 344 352 357 3 7 8 4 358 351 343 335 330 326 325
311 304 296 292 292 294 295 294 293 288 283 281 279 274 264 250 242 236 234 238 241 237 231 229 231 236 245 249 247 243 237 232 225 214 217 237 246 247 240 222 219 223 214 208 210 228 260 287 305 315 318 317 314 312 309 305 305 307 309 313 311 309 310 311 318 325 333 340 342 345 349 355 360 1 2 2 0 355 347 340 333 327 324 324 326
307 299 292 288 286 285 284 285 289 289 284 279 273 269 263 250 240 235 232 231 233 233 229 227 227 228 236 243 241 238 239 239 236 229 226 232 237 241 242 235 221 219 222 223 227 237 256 285 302 306 305 305 303 299 297 295 298 303 308 314 316 317 320 324 333 342 348 351 353 355 358 2 4 3 0 357 355 351 346 341 335 332 330 329 330
305 298 293 287 281 277 275 277 281 281 278 274 270 267 261 245 230 226 228 229 230 230 227 224 221 219 221 225 226 226 228 236 243 248 250 250 250 251 253 251 241 234 235 238 246 254 267 284 293 294 292 292 289 285 285 287 293 302 312 325 337 342 338 341 352 1 4 3 4 4 5 8 8 6 4 2 358 356 353 349 346 343 340 338 338
306 303 298 288 280 272 268 267 267 266 269 270 268 264 255 240 225 219 223 227 231 232 230 227 223 218 216 215 216 217 217 222 233 246 256 260 258 256 255 252 250 252 255 259 257 258 274 286 289 288 290 292 293 293 292 293 298 305 321 355 24 24 360 353 10 14 12 8 3 3 4 4 4 2 359 356 353 350 348 346 344 341 339 337 337
309 308 303 293 282 267 261 262 260 263 266 265 263 258 251 238 224 217 220 228 233 235 233 231 229 225 220 216 214 216 219 221 227 237 249 253 251 250 252 254 258 259 258 260 260 260 272 281 281 281 288 291 296 297 293 286 274 255 183 125 117 96 57 13 24 20 10 1 354 350 349 349 347 347 345 343 340 338 336 335 334 332 330 329 328
312 311 308 305 286 257 257 264 267 269 268 266 263 256 246 234 223 218 223 234 239 238 234 232 231 228 223 219 217 220 224 226 229 232 238 244 245 245 244 243 252 254 245 242 252 262 270 275 277 282 286 279 272 271 267 256 239 209 173 161 156 163 190 217 14 14 350 338 333 331 330 331 331 333 333 332 331 328 327 326 325 324 323 322 320
312 313 309 303 281 260 263 271 276 273 270 268 263 253 239 229 226 228 234 242 246 243 236 232 232 230 225 221 220 222 225 228 235 238 239 243 244 241 238 230 228 238 234 232 242 255 264 273 279 279 276 264 250 245 246 246 237 198 173 176 191 226 250 261 288 329 332 327 325 323 322 321 321 322 324 325 325 323 322 320 319 318 316 315 314
308 313 311 297 276 268 265 268 274 274 270 261 254 243 228 221 226 233 238 243 247 245 236 228 226 225 221 218 218 222 226 230 237 240 237 238 236 231 232 232 229 232 234 238 245 249 253 265 274 270 266 265 257 252 251 241 223 189 184 237 265 279 289 293 306 321 325 324 322 319 317 315 314 315 318 319 320 319 318 317 315 314 313 312 310
305 312 314 304 284 273 265 260 264 268 265 251 240 231 217 213 218 223 227 234 243 241 224 210 208 208 208 209 210 214 219 222 225 223 218 221 224 223 231 239 241 241 243 248 252 250 243 251 265 258 240 251 256 258 265 266 263 257 260 276 286 296 303 308 314 319 320 319 317 314 311 310 309 310 312 314 314 314 313 313 312 311 310 309 308
302 309 315 309 292 278 267 259 257 261 257 242 230 219 209 205 205 208 215 224 234 223 202 194 193 190 190 187 180 185 191 191 192 194 199 208 209 213 232 240 243 245 248 251 251 246 233 224 228 219 199 216 240 251 267 278 282 280 275 280 291 299 304 308 311 313 313 312 311 310 308 306 306 309 311 312 312 311 310 309 309 308 308 307 306
299 304 309 305 294 281 269 261 258 257 250 233 219 208 198 196 198 203 210 216 214 200 189 185 182 179 179 177 170 171 173 171 174 176 183 196 197 207 230 238 241 247 249 248 245 233 213 202 200 201 203 219 237 252 275 290 290 284 284 287 293 298 301 304 305 305 306 306 306 306 305 306 308 311 313 313 312 311 310 309 308 307 307 307 306
294 300 302 297 291 281 269 262 257 253 244 227 212 200 190 189 196 202 205 205 196 186 182 179 176 176 179 181 179 175 170 166 171 174 180 192 198 211 232 238 237 237 238 238 234 212 202 208 210 217 230 242 255 272 286 292 291 290 291 293 296 297 299 300 302 304 306 306 305 305 306 310 313 313 313 312 311 309 308 307 307 306 306 307 307
288 294 295 291 285 276 267 260 252 244 234 221 210 197 188 187 192 196 195 194 186 177 174 173 171 171 175 178 176 170 164 166 173 176 180 193 202 212 228 234 227 222 220 215 208 198 199 209 228 250 260 263 268 277 286 289 290 290 290 291 292 294 296 297 300 304 305 304 304 305 308 310 311 311 310 309 308 307 306 305 304 304 306 308 310
279 285 287 284 278 268 259 253 246 236 225 219 210 196 189 187 191 192 191 190 186 177 172 170 166 162 163 165 166 161 159 165 171 173 179 190 195 195 205 214 209 202 203 200 197 202 208 213 234 254 261 267 274 281 287 290 291 290 290 290 290 291 292 293 295 297 297 298 300 302 304 306 306 306 306 306 305 303 302 302 302 304 307 310 314
274 278 278 276 269 259 251 245 238 228 219 217 210 197 191 191 192 194 192 191 188 180 174 171 167 162 159 159 160 155 152 157 160 159 162 164 162 165 175 183 180 179 191 199 205 216 226 231 245 257 266 276 284 289 294 295 295 293 291 292 292 292 290 289 290 290 290 292 295 298 300 301 302 303 303 303 302 300 299 299 300 303 308 312 315
270 274 273 268 261 252 245 240 231 221 215 213 207 200 196 196 196 197 196 194 190 184 177 174 172 166 161 158 155 150 149 152 152 151 151 148 146 145 149 155 162 172 186 198 210 224 239 251 261 269 276 283 289 294 298 298 298 296 294 295 295 293 291 290 290 289 289 291 294 297 298 299 300 301 302 301 299 297 296 296 298 301 305 309 312
265 271 270 263 254 245 240 236 226 217 214 211 206 202 198 200 202 202 200 197 192 186 180 179 177 170 164 158 153 150 151 152 152 153 153 153 152 150 149 155 168 181 195 208 222 235 245 256 266 273 279 283 287 292 295 294 294 292 292 294 294 293 291 289 289 289 290 292 294 297 298 297 297 298 299 300 299 296 296 296 297 298 300 305 309
258 266 265 256 245 237 235 231 221 218 218 213 206 201 198 200 204 204 201 196 192 186 181 180 177 172 169 164 159 157 157 158 159 160 162 165 167 171 178 186 196 206 216 229 240 247 253 259 267 274 279 283 286 289 290 290 289 288 288 288 288 289 288 287 286 287 289 291 293 294 295 295 294 293 294 296 297 297 297 298 298 298 299 303 306
252 261 261 254 240 228 226 224 217 217 221 217 208 204 202 200 198 200 198 193 191 188 183 180 177 174 174 170 168 167 167 169 172 175 180 184 187 192 199 206 215 224 233 242 250 256 261 266 272 277 281 283 285 286 285 286 286 284 284 284 285 286 286 285 284 284 286 288 289 291 292 292 291 291 292 294 295 296 297 297 297 297 298 300 303
246 254 256 255 244 230 224 223 220 218 220 220 213 207 207 204 199 198 199 194 192 193 192 189 183 182 183 181 180 182 184 187 191 195 201 205 208 214 223 232 240 248 254 261 268 273 277 280 282 284 286 287 288 288 287 287 284 281 280 283 286 287 285 284 283 283 284 285 287 289 291 293 293 293 293 294 295 295 296 296 297 297 297 299 300
239 247 249 253 252 244 235 227 224 222 221 223 220 213 210 209 205 204 204 203 201 201 204 204 200 200 201 200 200 203 207 213 218 223 228 233 237 242 249 255 260 265 269 274 278 282 286 288 289 290 291 292 292 290 288 286 284 283 283 285 286 287 287 286 285 283 283 283 284 287 289 291 292 293 293 293 294 295 296 296 296 296 297 298 300
232 240 242 247 252 255 250 239 230 226 222 222 223 220 216 213 212 211 211 211 211 210 211 213 214 216 219 221 224 226 231 236 241 248 252 256 259 261 264 267 269 273 276 279 282 284 287 289 290 291 293 295 295 291 288 287 287 285 285 285 287 289 290 290 289 287 286 285 284 286 287 288 290 292 293 294 296 297 296 296 296 296 297 298 299
227 234 237 241 246 252 256 251 242 236 230 227 225 225 224 221 218 218 217 217 217 217 218 221 223 226 229 233 236 239 243 247 250 255 258 262 266 268 270 272 274 276 279 281 283 284 286 288 289 291 294 296 294 290 290 291 289 286 286 287 289 289 289 289 289 289 288 286 285 284 285 287 290 293 295 297 299 298 298 297 297 298 298 299 299
230 236 239 241 242 245 250 251 248 244 240 236 232 230 231 229 226 225 224 224 224 224 226 228 231 233 235 238 241 244 248 250 253 256 259 262 264 266 268 270 272 275 277 278 280 281 282 284 286 289 291 292 290 289 290 290 289 288 288 289 290 290 288 287 286 287 288 286 282 282 284 286 290 294 297 299 300 299 299 299 299 299 299 299 300
234 240 244 244 243 242 243 246 248 249 248 246 243 240 239 238 237 235 234 233 233 233 235 238 240 242 243 245 247 249 251 254 256 257 259 261 262 262 264 266 269 271 274 276 277 278 279 280 282 284 285 285 285 285 286 287 288 288 288 289 290 290 289 288 286 286 288 287 282 279 281 285 289 293 296 298 299 299 299 299 299 299 298 299 300
237 242 245 246 245 244 244 245 247 249 252 252 252 252 250 249 249 248 247 247 246 245 246 247 248 248 249 251 252 252 254 256 257 259 261 263 264 265 266 267 269 270 272 273 274 275 277 279 280 281 281 281 281 280 281 283 284 285 285 287 288 288 288 287 285 285 287 286 281 278 280 284 288 292 294 297 298 299 299 299 299 298 298 299 301
238 240 241 243 246 248 248 248 249 251 252 251 252 253 253 253 254 255 255 256 256 256 255 255 255 254 253 253 254 255 256 257 258 261 262 264 265 266 268 270 271 271 271 272 273 275 276 278 278 279 279 278 278 278 278 279 280 282 283 283 283 285 286 286 286 286 286 283 279 278 280 284 288 291 293 296 297 298 299 299 299 299 300 301 303
235 237 238 241 244 246 246 247 250 252 250 249 249 249 249 250 251 253 255 256 257 258 258 259 259 260 260 260 260 260 260 260 260 261 262 262 263 264 265 266 267 268 269 270 272 273 274 275 276 277 277 277 276 276 275 276 279 282 283 281 280 279 280 283 284 286 285 279 275 276 280 283 286 290 292 295 297 298 300 300 300 300 301 302 304
231 235 238 240 242 243 243 245 247 249 249 249 248 247 247 248 248 249 250 252 253 254 255 256 257 259 261 263 265 266 267 267 266 265 265 265 264 265 266 267 268 269 270 271 272 272 273 274 276 276 277 276 274 272 271 273 279 283 284 283 280 277 277 278 280 283 283 276 272 274 278 281 285 288 291 294 296 298 299 300 301 301 302 303 304
233 235 238 240 241 243 244 246 247 249 251 253 254 253 251 250 250 250 250 251 251 251 251 251 252 255 257 259 262 265 268 269 269 269 268 268 268 268 269 269 270 271 272 273 273 274 275 276 275 276 277 277 275 273 272 274 280 283 284 284 282 280 279 276 275 279 280 275 270 271 275 279 284 287 290 294 296 297 299 301 301 302 302 303 304
Height
3158 3158 3158 3159 3159 3160 3160 3161 3162 3163 3165 3166 3166 3167 3167 3168 3168 3169 3170 3171 3171 3171 3172 3172 3172 3173 3174 3175 3176 3176 3177 3178 3179 3180 3181 3181 3182 3182 3183 3183 3184 3184 3185 3186 3186 3187 3187 3187 3188 3189 3189 3189 3190 3190 3190 3190 3191 3191 3191 3191 3191 3191 3191 3191 3191 3191 3191 3191 3191 3191 3191 3190 3190 3190 3190 3189 3189 3189 3189 3188 3188 3188 3188 3187 3187
3157 3157 3157 3158 3158 3159 3159 3160 3161 3162 3163 3164 3165 3166 3166 3167 3168 3168 3169 3170 3170 3170 3171 3171 3171 3172 3172 3174 3174 3175 3176 3177 3178 3178 3179 3179 3180 3181 3181 3182 3182 3182 3183 3184 3185 3185 3186 3186 3187 3187 3187 3188 3188 3188 3189 3189 3189 3189 3190 3190 3190 3190 3190 3190 3190 3190 3190 3190 3190 3190 3190 3190 3189 3189 3189 3189 3188 3188 3188 3188 3188 3187 3187 3187 3187
3156 3156 3156 3157 3157 3158 3158 3159 3160 3161 3162 3163 3164 3165 3165 3166 3167 3167 3168 3168 3169 3169 3170 3170 3170 3170 3171 3172 3173 3174 3175 3175 3175 3176 3177 3178 3178 3179 3180 3180 3180 3181 3182 3182 3183 3184 3184 3185 3185 3186 3186 3186 3186 3186 3187 3187 3188 3188 3188 3188 3188 3188 3189 3189 3189 3189 3189 3189 3189 3189 3189 3189 3189 3189 3188 3188 3188 3187 3187 3187 3187 3187 3187 3187 3186
3155 3155 3156 3156 3157 3157 3158 3159 3159 3160 3161 3162 3163 3164 3164 3165 3166 3166 3167 3167 3168 3168 3169 3169 3169 3169 3170 3171 3172 3172 3173 3173 3174 3175 3176 3176 3177 3178 3178 3178 3179 3180 3181 3181 3182 3182 3183 3183 3184 3184 3184 3184 3184 3185 3185 3185 3186 3186 3186 3187 3187 3187 3188 3188 3188 3187 3187 3187 3188 3188 3188 3188 3188 3188 3187 3187 3187 3187 3186 3186 3186 3186 3186 3186 3185
3154 3155 3155 3156 3156 3157 3158 3158 3159 3160 3161 3161 3162 3163 3163 3164 3165 3165 3166 3167 3167 3168 3168 3169 3169 3169 3169 3170 3170 3171 3172 3173 3174 3174 3175 3175 3176 3176 3177 3177 3178 3179 3179 3180 3181 3181 3182 3182 3183 3183 3183 3183 3183 3183 3183 3183 3184 3184 3185 3185 3186 3186 3186 3186 3186 3186 3186 3186 3186 3187 3187 3187 3187 3186 3186 3186 3186 3185 3185 3185 3185 3185 3185 3185 3184
3153 3154 3155 3155 3156 3157 3157 3158 3158 3159 3160 3160 3161 3161 3162 3163 3164 3164 3165 3166 3167 3167 3168 3168 3168 3168 3169 3169 3169 3171 3172 3172 3172 3173 3173 3174 3175 3175 3176 3176 3177 3178 3178 3179 3179 3180 3181 3181 3181 3182 3182 3182 3182 3182 3182 3182 3183 3183 3184 3184 3185 3185 3185 3185 3185 3185 3185 3185 3185 3185 3185 3185 3185 3185 3185 3184 3184 3184 3184 3184 3184 3184 3184 3183 3183
3153 3154 3155 3155 3156 3157 3157 3157 3158 3159 3159 3160 3160 3160 3161 3162 3163 3164 3165 3165 3166 3167 3167 3167 3168 3168 3168 3168 3169 3170 3170 3170 3171 3172 3173 3173 3174 3175 3175 3175 3176 3176 3177 3178 3179 3179 3179 3180 3180 3181 3181 3181 3182 3181 3181 3182 3182 3182 3183 3183 3184 3184 3184 3184 3184 3184 3184 3184 3184 3184 3184 3184 3183 3183 3183 3183 3183 3183 3183 3183 3183 3182 3182 3182 3182
3153 3154 3154 3155 3155 3156 3156 3156 3157 3158 3159 3159 3159 3159 3160 3161 3162 3163 3164 3165 3165 3166 3166 3167 3167 3167 3168 3168 3168 3168 3169 3171 3172 3172 3172 3173 3173 3173 3174 3175 3175 3176 3177 3177 3178 3178 3178 3178 3179 3180 3180 3181 3181 3180 3180 3181 3181 3181 3182 3182 3183 3183 3182 3182 3183 3183 3183 3183 3183 3183 3182 3182 3182 3182 3182 3182 3182 3182 3182 3182 3181 3181 3181 3181 3181
3152 3153 3153 3154 3155 3155 3155 3155 3156 3158 3158 3158 3159 3159 3160 3161 3162 3162 3163 3164 3164 3165 3166 3166 3167 3167 3167 3167 3167 3168 3170 3171 3171 3171 3171 3172 3172 3173 3174 3175 3175 3175 3176 3176 3177 3177 3177 3178 3178 3179 3179 3179 3179 3179 3180 3180 3180 3180 3181 3181 3181 3182 3181 3181 3182 3182 3181 3181 3181 3181 3181 3181 3181 3180 3180 3180 3180 3180 3180 3180 3180 3180 3180 3180 3180
3151 3152 3153 3153 3154 3155 3155 3154 3156 3157 3157 3158 3158 3158 3159 3160 3161 3162 3162 3163 3164 3164 3165 3166 3166 3166 3167 3167 3167 3168 3170 3171 3171 3169 3170 3171 3171 3172 3173 3173 3174 3174 3175 3175 3176 3176 3177 3177 3178 3178 3178 3178 3178 3179 3179 3179 3179 3180 3180 3180 3180 3181 3180 3180 3181 3180 3180 3180 3180 3180 3180 3180 3179 3179 3179 3179 3179 3179 3178 3178 3178 3178 3178 3179 3178
3150 3151 3152 3153 3153 3154 3154 3154 3155 3157 3157 3158 3158 3158 3159 3160 3161 3161 3161 3162 3163 3164 3164 3165 3165 3165 3166 3166 3166 3168 3170 3171 3169 3168 3169 3170 3170 3171 3172 3173 3173 3174 3174 3175 3175 3176 3176 3177 3177 3177 3178 3177 3178 3178 3179 3179 3179 3179 3180 3180 3180 3180 3179 3180 3180 3179 3179 3179 3179 3179 3179 3179 3178 3178 3178 3178 3177 3177 3177 3177 3177 3177 3177 3177 3177
3150 3150 3151 3152 3153 3153 3154 3154 3155 3156 3157 3158 3158 3158 3158 3159 3160 3161 3161 3161 3162 3163 3164 3164 3165 3165 3165 3166 3166 3168 3170 3170 3167 3167 3170 3170 3169 3171 3172 3173 3173 3173 3174 3175 3175 3175 3176 3176 3176 3177 3177 3177 3177 3178 3178 3178 3178 3179 3180 3180 3179 3179 3179 3179 3179 3178 3178 3178 3178 3177 3177 3177 3177 3177 3176 3176 3176 3176 3175 3175 3175 3175 3175 3175 3175
3149 3150 3150 3151 3152 3153 3153 3154 3155 3156 3157 3158 3158 3158 3158 3159 3160 3160 3160 3161 3161 3162 3163 3164 3164 3165 3165 3165 3166 3167 3169 3169 3167 3168 3170 3169 3169 3171 3171 3172 3172 3173 3173 3174 3174 3175 3175 3175 3176 3177 3177 3177 3177 3177 3177 3178 3177 3178 3179 3180 3179 3178 3178 3178 3178 3177 3177 3177 3176 3176 3176 3176 3176 3175 3175 3175 3174 3174 3174 3174 3174 3174 3174 3174 3173
3150 3150 3151 3151 3152 3152 3153 3154 3155 3156 3156 3157 3157 3157 3158 3158 3159 3160 3160 3161 3161 3162 3163 3163 3164 3164 3165 3165 3166 3167 3168 3168 3167 3169 3169 3169 3169 3170 3171 3171 3171 3172 3173 3173 3174 3174 3174 3175 3175 3176 3176 3176 3176 3176 3177 3177 3177 3177 3178 3178 3178 3178 3177 3177 3177 3177 3177 3176 3176 3176 3175 3175 3175 3174 3174 3173 3173 3172 3172 3172 3172 3172 3172 3172 3172
3150 3150 3151 3151 3152 3152 3153 3154 3154 3155 3156 3157 3157 3157 3157 3158 3159 3159 3160 3160 3161 3161 3162 3163 3163 3164 3164 3165 3165 3166 3167 3167 3167 3168 3168 3168 3170 3171 3172 3171 3171 3172 3173 3173 3173 3174 3174 3174 3175 3175 3175 3175 3176 3176 3176 3176 3176 3176 3177 3177 3178 3178 3177 3177 3177 3176 3176 3176 3176 3175 3175 3174 3174 3173 3173 3172 3172 3171 3171 3171 3171 3171 3171 3171 3171
3150 3150 3151 3151 3151 3152 3152 3153 3154 3155 3155 3156 3156 3157 3157 3158 3158 3159 3159 3160 3161 3161 3161 3162 3162 3163 3163 3164 3165 3166 3167 3167 3167 3168 3168 3168 3170 3172 3172 3171 3172 3172 3172 3173 3173 3173 3173 3174 3175 3175 3175 3175 3175 3175 3175 3175 3175 3176 3176 3177 3177 3177 3177 3176 3176 3176 3175 3175 3175 3175 3174 3174 3173 3172 3172 3171 3170 3170 3170 3170 3170 3170 3169 3169 3169
3149 3150 3150 3150 3151 3151 3151 3152 3152 3153 3154 3155 3156 3156 3157 3157 3157 3158 3159 3159 3160 3161 3161 3161 3162 3162 3163 3164 3164 3165 3166 3167 3167 3168 3168 3168 3170 3172 3172 3171 3172 3172 3172 3172 3172 3173 3173 3174 3175 3175 3175 3175 3175 3175 3175 3175 3175 3175 3176 3176 3176 3177 3177 3176 3176 3175 3175 3174 3174 3174 3173 3173 3172 3171 3171 3170 3170 3169 3169 3169 3169 3168 3168 3168 3168
3149 3149 3150 3150 3150 3150 3150 3151 3151 3152 3153 3154 3155 3155 3156 3156 3156 3157 3157 3158 3159 3160 3160 3160 3161 3161 3162 3163 3164 3164 3165 3166 3167 3167 3168 3168 3169 3171 3171 3170 3171 3171 3171 3172 3172 3173 3173 3173 3174 3174 3174 3174 3174 3174 3174 3175 3175 3175 3175 3175 3175 3176 3176 3175 3175 3174 3174 3173 3173 3173 3172 3172 3171 3171 3170 3169 3169 3169 3168 3168 3168 3168 3167 3167 3167
3149 3149 3150 3150 3150 3150 3150 3150 3150 3151 3152 3153 3153 3154 3154 3155 3155 3156 3156 3157 3158 3158 3159 3159 3160 3160 3161 3162 3163 3164 3165 3166 3166 3167 3167 3168 3169 3170 3170 3170 3170 3171 3171 3172 3172 3172 3173 3173 3174 3174 3174 3174 3174 3174 3174 3174 3174 3174 3175 3175 3175 3175 3174 3174 3174 3174 3173 3173 3172 3172 3171 3171 3171 3170 3169 3169 3169 3168 3168 3168 3167 3167 3167 3167 3167
3149 3149 3149 3149 3150 3150 3150 3149 3149 3150 3151 3151 3152 3153 3153 3153 3154 3154 3155 3156 3157 3157 3158 3159 3159 3160 3160 3162 3163 3163 3164 3165 3166 3166 3167 3168 3168 3169 3170 3170 3171 3171 3171 3172 3172 3172 3173 3173 3174 3174 3174 3174 3174 3174 3174 3174 3174 3174 3174 3174 3174 3174 3174 3173 3173 3173 3173 3172 3172 3172 3171 3171 3170 3170 3169 3169 3168 3168 3168 3167 3167 3167 3167 3167 3166
3149 3149 3148 3149 3149 3149 3149 3149 3149 3149 3149 3150 3151 3151 3152 3152 3153 3153 3154 3155 3156 3157 3157 3158 3159 3159 3160 3161 3162 3163 3164 3164 3165 3166 3166 3167 3168 3168 3169 3170 3171 3171 3171 3172 3172 3172 3173 3173 3173 3173 3173 3173 3173 3173 3173 3173 3173 3173 3173 3173 3173 3173 3173 3173 3173 3173 3172 3172 3172 3171 3171 3171 3170 3169 3169 3169 3168 3168 3168 3167 3167 3167 3167 3167 3166
3148 3148 3148 3148 3149 3149 3149 3148 3148 3148 3148 3149 3149 3150 3150 3151 3151 3152 3153 3154 3154 3155 3156 3157 3158 3158 3159 3160 3161 3162 3163 3163 3164 3165 3165 3166 3167 3168 3168 3169 3170 3170 3171 3171 3171 3171 3172 3172 3172 3172 3172 3172 3172 3172 3172 3172 3172 3172 3172 3172 3172 3173 3173 3173 3173 3172 3172 3172 3172 3172 3171 3171 3170 3170 3169 3169 3169 3168 3168 3168 3167 3167 3167 3167 3166
3148 3148 3148 3148 3148 3148 3148 3147 3147 3147 3147 3148 3148 3149 3149 3150 3150 3151 3152 3153 3153 3154 3155 3155 3156 3157 3158 3159 3160 3161 3162 3163 3163 3164 3164 3165 3166 3167 3168 3168 3169 3170 3170 3171 3171 3171 3171 3171 3170 3170 3170 3171 3171 3171 3171 3171 3171 3171 3171 3172 3172 3172 3172 3172 3172 3172 3172 3172 3172 3172 3171 3171 3171 3170 3170 3170 3169 3169 3169 3168 3168 3167 3167 3166 3166
3147 3147 3147 3147 3146 3146 3146 3146 3146 3147 3147 3147 3147 3148 3148 3149 3149 3150 3151 3152 3153 3153 3154 3154 3155 3156 3157 3157 3159 3160 3161 3162 3162 3163 3164 3164 3165 3166 3167 3168 3169 3170 3170 3171 3171 3171 3170 3170 3170 3170 3170 3170 3170 3171 3171 3171 3171 3171 3171 3171 3171 3171 3171 3171 3171 3172 3172 3172 3172 3172 3172 3171 3171 3171 3170 3170 3169 3169 3169 3168 3168 3168 3167 3167 3166
3147 3147 3146 3145 3145 3145 3145 3145 3145 3146 3146 3146 3146 3147 3147 3148 3148 3149 3150 3151 3152 3153 3153 3154 3154 3155 3156 3157 3158 3159 3160 3161 3161 3162 3163 3164 3165 3165 3166 3167 3168 3168 3169 3169 3170 3170 3170 3170 3170 3170 3170 3170 3170 3170 3170 3170 3170 3170 3170 3170 3170 3170 3170 3171 3171 3171 3172 3172 3172 3172 3172 3171 3171 3171 3170 3170 3170 3169 3169 3168 3168 3167 3167 3166 3166
3146 3146 3146 3145 3145 3144 3144 3145 3145 3145 3145 3146 3146 3146 3146 3146 3147 3149 3150 3151 3152 3152 3153 3153 3153 3154 3155 3156 3157 3158 3159 3160 3160 3161 3162 3163 3164 3164 3165 3166 3167 3167 3168 3168 3169 3169 3169 3169 3169 3169 3169 3169 3169 3170 3170 3170 3170 3170 3170 3170 3170 3170 3170 3170 3171 3171 3172 3172 3172 3172 3171 3171 3171 3171 3170 3170 3169 3169 3168 3168 3168 3167 3167 3166 3165
3145 3145 3145 3145 3145 3145 3144 3144 3144 3144 3145 3145 3145 3145 3145 3145 3146 3147 3148 3150 3150 3151 3152 3152 3152 3153 3154 3156 3157 3157 3158 3159 3160 3160 3161 3162 3163 3163 3164 3165 3166 3166 3166 3167 3168 3168 3168 3168 3168 3169 3169 3169 3169 3169 3169 3169 3169 3170 3170 3170 3170 3170 3170 3170 3170 3171 3171 3171 3171 3171 3171 3171 3170 3170 3170 3169 3169 3168 3168 3167 3167 3166 3166 3165 3165
3145 3144 3144 3145 3145 3145 3144 3144 3144 3144 3144 3144 3144 3144 3144 3144 3145 3146 3147 3148 3149 3150 3151 3151 3152 3152 3154 3155 3156 3156 3157 3158 3159 3160 3160 3161 3162 3162 3163 3164 3165 3165 3166 3166 3167 3167 3168 3168 3168 3168 3168 3169 3169 3169 3169 3169 3169 3170 3170 3170 3170 3170 3170 3170 3170 3170 3171 3171 3171 3171 3170 3170 3170 3169 3169 3169 3168 3167 3167 3166 3166 3165 3165 3164 3163
3144 3144 3144 3144 3144 3144 3144 3144 3143 3143 3144 3144 3143 3143 3143 3144 3144 3144 3145 3147 3148 3149 3149 3150 3151 3151 3152 3154 3155 3156 3156 3157 3158 3159 3160 3161 3161 3162 3163 3163 3164 3165 3165 3166 3166 3167 3167 3167 3168 3168 3168 3168 3168 3169 3169 3169 3169 3170 3170 3170 3170 3170 3170 3170 3170 3170 3170 3170 3170 3170 3170 3169 3169 3169 3169 3168 3167 3167 3166 3165 3165 3164 3163 3163 3162
3143 3143 3143 3143 3143 3143 3143 3143 3143 3143 3143 3143 3143 3142 3143 3143 3144 3144 3145 3146 3147 3148 3149 3149 3150 3151 3152 3153 3154 3155 3156 3158 3158 3159 3160 3161 3161 3162 3163 3163 3164 3165 3165 3166 3166 3166 3167 3167 3167 3168 3168 3168 3168 3169 3169 3169 3170 3170 3170 3170 3170 3170 3170 3170 3170 3170 3170 3170 3170 3169 3169 3169 3168 3168 3168 3167 3166 3166 3165 3164 3163 3162 3162 3161 3160
3143 3142 3142 3142 3142 3142 3142 3142 3142 3142 3142 3142 3142 3142 3142 3143 3143 3144 3144 3145 3146 3147 3148 3149 3150 3151 3151 3152 3154 3155 3156 3157 3158 3159 3160 3161 3162 3162 3163 3163 3164 3164 3165 3165 3165 3166 3166 3167 3167 3167 3168 3168 3168 3169 3169 3169 3169 3169 3169 3169 3169 3169 3169 3169 3169 3169 3169 3168 3168 3168 3168 3167 3167 3167 3166 3166 3165 3164 3163 3162 3161 3160 3160 3159 3158
3142 3141 3141 3141 3141 3141 3141 3141 3140 3140 3141 3141 3141 3142 3142 3142 3143 3143 3144 3145 3145 3146 3147 3148 3149 3150 3151 3152 3153 3154 3155 3157 3158 3159 3160 3161 3162 3162 3163 3163 3163 3164 3164 3164 3165 3166 3166 3166 3167 3167 3168 3168 3168 3168 3168 3169 3169 3169 3169 3169 3169 3168 3168 3168 3168 3168 3167 3167 3167 3167 3166 3166 3166 3166 3165 3165 3164 3163 3162 3161 3160 3159 3158 3157 3156
3141 3140 3140 3140 3140 3141 3140 3140 3140 3140 3140 3140 3141 3141 3142 3142 3143 3143 3144 3144 3145 3145 3147 3148 3148 3149 3151 3151 3152 3153 3154 3156 3157 3158 3159 3161 3162 3162 3162 3163 3163 3163 3164 3164 3165 3166 3166 3166 3167 3167 3167 3168 3168 3168 3168 3168 3168 3168 3168 3168 3168 3167 3167 3167 3167 3166 3166 3165 3165 3164 3164 3164 3164 3164 3163 3163 3162 3161 3160 3159 3158 3157 3156 3155 3154
3140 3140 3140 3140 3140 3140 3140 3140 3140 3140 3140 3140 3141 3141 3141 3142 3142 3143 3143 3144 3144 3145 3146 3147 3148 3149 3150 3151 3151 3152 3153 3155 3156 3157 3159 3160 3161 3162 3162 3163 3163 3163 3164 3164 3165 3166 3166 3167 3167 3167 3167 3167 3167 3167 3167 3168 3168 3167 3167 3167 3166 3166 3166 3165 3165 3164 3164 3163 3163 3162 3162 3162 3162 3162 3161 3161 3160 3159 3158 3158 3157 3156 3155 3154 3153
3139 3139 3139 3139 3139 3139 3139 3139 3140 3140 3140 3140 3140 3141 3141 3141 3142 3142 3143 3143 3144 3145 3145 3146 3147 3148 3149 3150 3151 3152 3153 3154 3155 3156 3158 3159 3160 3162 3162 3163 3163 3163 3164 3165 3166 3166 3166 3167 3167 3166 3166 3166 3166 3166 3167 3167 3166 3166 3166 3165 3165 3165 3164 3164 3163 3163 3162 3162 3161 3161 3161 3160 3160 3160 3159 3159 3158 3157 3156 3156 3155 3154 3153 3152 3151
3138 3138 3138 3138 3138 3138 3138 3138 3139 3139 3139 3140 3140 3141 3141 3141 3142 3142 3142 3143 3143 3144 3145 3146 3147 3148 3149 3150 3151 3151 3152 3154 3155 3156 3157 3158 3160 3161 3162 3162 3163 3163 3164 3165 3166 3166 3166 3166 3166 3166 3166 3166 3165 3165 3165 3165 3165 3165 3164 3164 3164 3164 3163 3162 3162 3161 3160 3160 3159 3159 3159 3159 3158 3158 3157 3157 3156 3155 3155 3154 3153 3153 3152 3151 3150
3137 3137 3137 3137 3137 3137 3137 3138 3138 3139 3139 3139 3140 3140 3141 3141 3141 3142 3142 3142 3143 3144 3145 3145 3146 3147 3148 3149 3150 3151 3152 3153 3155 3156 3157 3158 3159 3160 3161 3162 3162 3163 3164 3165 3165 3166 3166 3166 3165 3165 3165 3165 3164 3164 3164 3164 3164 3163 3163 3163 3163 3162 3162 3161 3160 3160 3159 3158 3158 3157 3157 3157 3156 3156 3155 3155 3154 3153 3153 3152 3151 3150 3150 3149 3148
3136 3136 3136 3136 3136 3136 3137 3137 3138 3138 3138 3139 3139 3140 3141 3141 3141 3141 3142 3142 3143 3144 3144 3145 3146 3147 3148 3149 3150 3150 3152 3153 3154 3156 3157 3158 3159 3159 3160 3161 3162 3163 3163 3164 3165 3165 3165 3165 3164 3164 3163 3163 3163 3163 3163 3163 3163 3162 3162 3162 3161 3161 3160 3159 3159 3158 3157 3156 3156 3155 3155 3155 3154 3154 3153 3153 3152 3151 3151 3150 3149 3148 3147 3146 3145
3135 3135 3135 3136 3136 3136 3136 3137 3137 3138 3138 3138 3139 3139 3140 3141 3141 3141 3142 3142 3143 3143 3144 3145 3146 3147 3148 3149 3149 3150 3151 3152 3153 3155 3156 3156 3157 3158 3159 3160 3161 3162 3162 3163 3163 3164 3164 3163 3163 3162 3162 3162 3162 3162 3161 3161 3161 3161 3160 3160 3159 3159 3158 3157 3157 3156 3155 3154 3154 3153 3153 3153 3152 3152 3151 3150 3150 3149 3148 3148 3147 3146 3145 3144 3143
3133 3134 3134 3135 3135 3135 3136 3136 3137 3137 3137 3138 3138 3139 3139 3140 3141 3141 3141 3142 3142 3143 3144 3145 3146 3147 3148 3148 3149 3150 3151 3151 3152 3153 3154 3155 3156 3157 3158 3159 3159 3160 3161 3161 3162 3162 3162 3162 3162 3161 3161 3161 3160 3160 3160 3160 3159 3159 3158 3157 3157 3156 3156 3155 3154 3153 3153 3152 3151 3151 3151 3150 3150 3149 3148 3148 3147 3147 3146 3145 3145 3144 3142 3141 3140
3132 3133 3133 3134 3134 3134 3135 3136 3136 3137 3137 3137 3138 3138 3139 3139 3140 3140 3141 3141 3142 3142 3143 3144 3145 3146 3147 3148 3149 3150 3150 3151 3152 3153 3153 3154 3155 3155 3156 3157 3157 3158 3159 3159 3160 3160 3160 3160 3160 3159 3159 3159 3158 3158 3158 3157 3157 3157 3156 3155 3155 3154 3153 3153 3152 3151 3150 3150 3149 3148 3148 3147 3147 3146 3146 3145 3144 3144 3143 3142 3141 3140 3139 3138 3136
3131 3132 3132 3133 3133 3133 3134 3135 3136 3136 3136 3137 3137 3137 3138 3138 3139 3139 3140 3141 3141 3142 3142 3143 3144 3145 3146 3147 3148 3149 3150 3151 3151 3152 3153 3153 3153 3154 3154 3155 3155 3156 3156 3157 3157 3157 3157 3157 3157 3157 3156 3156 3156 3155 3155 3154 3154 3154 3153 3152 3152 3151 3151 3150 3149 3148 3148 3147 3146 3146 3145 3145 3144 3144 3143 3142 3142 3141 3140 3139 3138 3137 3135 3134 3132
3130 3130 3131 3131 3132 3133 3133 3134 3135 3135 3135 3136 3136 3136 3137 3137 3137 3138 3138 3139 3140 3141 3141 3142 3142 3143 3144 3145 3146 3147 3148 3149 3150 3150 3151 3151 3152 3152 3152 3153 3153 3153 3154 3154 3154 3154 3154 3154 3154 3154 3153 3154 3153 3153 3152 3152 3151 3150 3150 3149 3148 3148 3147 3147 3146 3145 3145 3144 3144 3143 3143 3142 3142 3141 3140 3140 3139 3138 3137 3136 3135 3133 3132 3130 3129
3128 3129 3129 3130 3131 3132 3133 3133 3134 3134 3134 3134 3134 3135 3135 3135 3136 3136 3137 3138 3138 3139 3140 3141 3141 3142 3142 3143 3144 3145 3146 3147 3147 3148 3148 3149 3149 3149 3149 3150 3150 3150 3150 3151 3151 3151 3151 3151 3151 3150 3150 3150 3150 3149 3149 3149 3148 3148 3147 3146 3146 3145 3145 3144 3143 3142 3142 3141 3141 3140 3140 3139 3138 3138 3137 3137 3136 3135 3133 3132 3131 3129 3128 3126 3124
3126 3127 3128 3129 3130 3130 3131 3132 3132 3133 3133 3133 3133 3133 3133 3134 3134 3135 3135 3136 3137 3138 3138 3139 3140 3140 3141 3142 3142 3143 3144 3144 3145 3145 3146 3146 3146 3146 3146 3146 3147 3147 3147 3147 3147 3148 3148 3148 3147 3147 3147 3147 3146 3146 3146 3145 3145 3144 3144 3143 3143 3142 3142 3141 3140 3139 3139 3138 3138 3137 3136 3136 3135 3134 3134 3133 3132 3131 3130 3129 3127 3125 3124 3122 3120
3125 3126 3127 3128 3128 3129 3130 3130 3130 3131 3131 3131 3132 3132 3132 3133 3133 3134 3134 3135 3136 3136 3137 3138 3138 3139 3140 3140 3141 3142 3142 3142 3143 3143 3143 3143 3143 3143 3143 3143 3143 3143 3143 3143 3144 3144 3144 3144 3144 3144 3144 3143 3143 3143 3142 3141 3141 3141 3140 3140 3139 3139 3138 3137 3136 3136 3135 3135 3135 3134 3134 3133 3133 3132 3131 3130 3129 3128 3126 3125 3123 3122 3120 3118 3116
3124 3125 3125 3126 3127 3127 3128 3128 3129 3129 3129 3130 3130 3131 3131 3131 3132 3133 3133 3134 3135 3135 3136 3136 3137 3137 3138 3138 3139 3139 3139 3140 3140 3140 3140 3140 3140 3140 3140 3140 3140 3140 3140 3140 3140 3140 3140 3140 3140 3140 3140 3140 3139 3139 3139 3138 3138 3137 3137 3136 3135 3135 3134 3133 3132 3131 3131 3132 3132 3131 3130 3130 3130 3129 3128 3127 3126 3124 3123 3121 3120 3118 3116 3114 3112
3122 3123 3123 3124 3125 3125 3126 3126 3127 3127 3127 3128 3128 3128 3129 3129 3130 3130 3131 3132 3132 3133 3134 3135 3135 3135 3135 3135 3135 3136 3136 3136 3137 3137 3137 3137 3136 3136 3136 3136 3136 3136 3137 3137 3136 3136 3136 3136 3135 3135 3135 3135 3135 3135 3135 3134 3134 3134 3133 3132 3131 3131 3130 3129 3128 3128 3128 3128 3128 3127 3127 3126 3126 3125 3124 3124 3122 3120 3119 3118 3116 3114 3111 3109 3107
3119 3120 3121 3122 3123 3123 3124 3124 3124 3125 3125 3125 3125 3126 3126 3127 3127 3127 3128 3128 3129 3130 3131 3132 3132 3132 3132 3132 3132 3132 3133 3133 3134 3134 3133 3132 3132 3132 3132 3132 3132 3132 3133 3133 3133 3132 3132 3131 3131 3131 3130 3130 3130 3129 3129 3129 3130 3130 3129 3128 3127 3127 3126 3126 3125 3124 3124 3124 3124 3123 3123 3122 3122 3121 3121 3120 3118 3116 3115 3113 3111 3109 3107 3105 3103
3117 3118 3119 3120 3120 3121 3121 3122 3122 3122 3122 3122 3122 3123 3123 3123 3124 3124 3124 3125 3126 3126 3127 3128 3128 3128 3128 3129 3129 3129 3129 3130 3130 3130 3129 3128 3128 3128 3128 3128 3127 3127 3128 3128 3127 3127 3126 3126 3126 3126 3126 3125 3125 3124 3124 3124 3125 3125 3124 3123 3123 3123 3122 3121 3121 3120 3119 3120 3120 3120 3119 3118 3118 3117 3117 3116 3115 3113 3111 3109 3107 3105 3102 3100 3098
3115 3116 3117 3117 3118 3118 3119 3119 3120 3120 3120 3119 3119 3119 3120 3120 3120 3121 3121 3121 3122 3122 3123 3123 3124 3124 3125 3125 3125 3125 3126 3126 3126 3126 3125 3124 3123 3123 3123 3123 3122 3122 3123 3123 3121 3121 3121 3120 3120 3120 3120 3120 3120 3119 3119 3120 3120 3119 3119 3118 3117 3118 3117 3116 3116 3115 3115 3115 3116 3116 3115 3115 3114 3114 3113 3111 3110 3109 3108 3106 3103 3101 3098 3096 3094